Regional Weather Roundup
Issued by NWS Northern Indiana

Home | Current Version | Previous Version | Graphics & Text | Print | Product List | Glossary On
Versions: 1 2 3 4 5 6 7 8 9 10 11 12 13 14 15 16 17 18 19 20 21 22 23 24 25 26 27 28 29 30 31 32 33 34 35 36 37 38 39 40 41 42 43 44 45 46 47 48 49 50
973
ASUS43 KIWX 240700
RWRIWX

KIWX WEATHER ROUNDUP
NATIONAL WEATHER SERVICE NORTHERN INDIANA
200 AM EST WED JAN 24 2018

NOTE: "FAIR" INDICATES FEW OR NO CLOUDS BELOW 12,000 FEET WITH NO
SIGNIFICANT WEATHER AND/OR OBSTRUCTIONS TO VISIBILITY.

* THESE STATIONS ARE NOT UNDER NWS QUALITY CONTROL. THEY ALSO MAY NOT
  REPORT WEATHER SUCH AS PRECIPITATION OR FOG.

INZ001>027-240800-
NORTHERN INDIANA

CITY           SKY/WX    TMP DP  RH WIND       PRES   REMARKS
MICHIGAN CITY* CLOUDY    30  27  86 NW6       30.16S WCI  24
KNOX*          CLOUDY    30  27  86 W8        30.15S WCI  23
SOUTH BEND     CLOUDY    29  25  85 W9        30.13R WCI  20
GOSHEN         CLOUDY    31  25  78 NW13      30.12R WCI  21
MONTICELLO*    CLOUDY    29  25  83 NW10      30.16F WCI  20
FORT WAYNE     CLOUDY    32  27  81 W9        30.12R WCI  24

$$
INZ028>050-240800-
CENTRAL INDIANA

CITY           SKY/WX    TMP DP  RH WIND       PRES   REMARKS
LAFAYETTE      CLOUDY    30  27  88 NW7       30.17F WCI  23
MUNCIE*        CLOUDY    32  25  75 W12       30.14R WCI  23
INDIANAPOLIS   FRZ DRZL  30  28  92 W14       30.18R WCI  19

$$
MIZ043>046-050>051-056>058-064>065-071>073-077>080-240800-
SOUTHWEST LOWER MICHIGAN

CITY           SKY/WX    TMP DP  RH WIND       PRES   REMARKS
BATTLE CREEK   CLOUDY    27  20  75 N10       30.09R WCI  17
BENTON HARBOR  CLOUDY    31  22  69 VRB6      30.13R WCI  25
COLDWATER*     CLOUDY    29  22  75 NW8G17    30.09R WCI  21
HILLSDALE*     CLOUDY    28  19  69 NW13      30.06R WCI  18
HOLLAND        CLOUDY    30  20  66 N9        30.11R WCI  22
GRAND RAPIDS   CLOUDY    27  18  69 NW14      30.09R WCI  16
KALAMAZOO      CLOUDY    29  21  72 NW9       30.10R WCI  20
THREE RIVERS*  CLOUDY    31  23  72 NW3       30.11R

$$
OHZ001>008-015>018-024>025-240800-
NORTHWEST OHIO

CITY           SKY/WX    TMP DP  RH WIND       PRES   REMARKS
DEFIANCE       CLOUDY    31  23  72 NW13      30.10R WCI  21
FINDLAY        CLOUDY    31  22  69 NW15      30.07R WCI  20
TOLEDO EXPRESS CLOUDY    30  22  72 NW13      30.08R WCI  20
TOLEDO METCALF CLOUDY    31  22  69 NW14      30.08R WCI  21
LIMA           CLOUDY    30  25  81 NW12      30.09R WCI  20

$$
AND FOR LAKE MICHIGAN COASTAL AND OPEN LAKE BUOY OBSERVATIONS

STATION/POSITION TEMP    WIND        PRES    VSBY  WAVE
                 AIR SEA DIR/SP/G                  HT/PER
                 (F)     (DEG/KT/KT) (MB)    (MI)  (FT/S)
CALUMET HARBOR    28     270/  4/  7 1020.7F
MICHIGAN CITY     29     270/ 11/ 13   N/A
BURNS HARBOR      29     300/  9/ 12 1021.7S
SAINT JOSEPH      31     340/  8/ 11 1020.3

$$
&&




USA.gov is the U.S. government's official web portal to all federal, state and local government web resources and services.